User: anonymous   Login
Location: Mactaquac Provincial Park
(45.9573°N, 66.8897°W)
Time: 19:40:57
(UTC-03:00)
Language:

CENTAUR R/B - Orbit

View from above orbital plane
View from above orbital plane
View from above satellite
View from above satellite

Ground track
Ground track

The orbit data is extracted from the following two-line orbital elements,

1 26906U 01040B   17116.97447932 0.00000025  00000-0  29596-4 0    04
2 26906  63.4620 104.6693 0354000 341.9884  18.0180 13.44009574    09
Epoch (UTC): 26 April 2017 23:23:15
Eccentricity: 0.0354000
inclination: 63.4620°
perigee height: 830 km
apogee height: 1359 km
right ascension of ascending node: 104.6693°
argument of perigee: 341.9884°
revolutions per day: 13.44009574
mean anomaly at epoch: 18.0180°
orbit number at epoch: 0

The dashed part of the orbit path shows where the satellite is in the earth's shadow,  

DLR